Weather History for Piney Island, NC

Change the Weather History Date:

Thursday, September 4, 2014

  Actual Average (KMRH) Record (KMRH)
Temperature  
Mean Temperature 83 °F -  
Max Temperature 90 °F 85 °F 91 °F (1951)
Min Temperature 77 °F 69 °F 54 °F (1967)
Cooling Degree Days 18    
Growing Degree Days 33 (Base 50)    
Moisture  
Dew Point 73 °F    
Average Humidity 76    
Maximum Humidity 88    
Minimum Humidity 53    
Precipitation  
Precipitation 0.00 in - - ()
Sea Level Pressure  
Sea Level Pressure 30.17 in    
Wind  
Wind Speed 5 mph (South)    
Max Wind Speed 13 mph    
Max Gust Speed 17 mph    
Visibility 6 miles    
Events Rain    
Averages and records for this station are not official NWS values.
T = Trace of Precipitation, MM = Missing Value Source: NWS Daily Summary

Daily Weather History Graph

Daily Weather History Graph

Search for Another Location

Airport:

Trip Planner

Search our weather history database for the weather conditions in past years. The results will help you decide how hot, cold, wet, or windy it might be!

Date:

Astronomy

Sep. 04, 2014 Rise Set
Actual Time 6:40 AM EDT 7:28 PM EDT
Civil Twilight 6:14 AM EDT 7:54 PM EDT
Nautical Twilight 5:44 AM EDT 8:24 PM EDT
Astronomical Twilight 5:13 AM EDT 8:55 PM EDT
Moon 3:57 PM EDT (9/4) 1:36 AM EDT (9/4)
Length of Visible Light 13h 39m
Length of Day
12h 47m
Waxing Gibbous, 74% of the Moon is Illuminated
Sep 4
Waxing Gibbous
Sep 8
Full
Sep 15
Last Quarter
Sep 24
New
Oct 1
First Quarter

Hourly Weather History & Observations

Time (EDT) Temp. Heat Index Dew Point Humidity Pressure Visibility Wind Dir Wind Speed Gust Speed Precip Events Conditions
12:56 AM 80.1 °F 85.4 °F 75.9 °F 87% 30.13 in 7.0 mi SW 4.6 mph - N/A   Clear
1:56 AM 79.0 °F - 75.0 °F 88% 30.13 in 6.0 mi South 3.5 mph - N/A   Clear
2:56 AM 79.0 °F - 75.0 °F 88% 30.14 in 6.0 mi WSW 4.6 mph - N/A   Clear
3:56 AM 80.1 °F 84.5 °F 73.9 °F 81% 30.14 in 7.0 mi SW 4.6 mph - N/A   Clear
4:56 AM 78.1 °F - 73.9 °F 87% 30.13 in 6.0 mi Calm Calm - N/A   Clear
5:56 AM 78.1 °F - 73.9 °F 87% 30.15 in 6.0 mi South 4.6 mph - N/A   Clear
6:56 AM 79.0 °F - 73.9 °F 84% 30.17 in 5.0 mi SSE 3.5 mph - N/A   Haze
7:56 AM 81.0 °F 87.3 °F 75.9 °F 85% 30.18 in 5.0 mi Calm Calm - N/A   Haze
8:56 AM 84.0 °F 91.2 °F 73.9 °F 72% 30.18 in 7.0 mi WSW 4.6 mph - N/A   Clear
9:56 AM 84.0 °F 91.2 °F 73.9 °F 72% 30.19 in 7.0 mi West 3.5 mph - N/A   Scattered Clouds
10:45 AM 82.9 °F 88.8 °F 73.0 °F 72% 30.19 in 6.0 mi WSW 8.1 mph - N/A   Haze
10:52 AM 78.8 °F - 71.6 °F 78% 30.19 in 1.5 mi West 9.2 mph - N/A Rain Heavy Rain
10:56 AM 78.1 °F - 72.0 °F 81% 30.21 in 1.0 mi NW 8.1 mph - N/A Rain Heavy Rain
11:05 AM 77.0 °F - 71.1 °F 82% 30.20 in 3.0 mi NNE 8.1 mph - N/A Rain Light Rain
11:19 AM 79.0 °F - 73.0 °F 82% 30.19 in 5.0 mi ENE 3.5 mph - N/A Rain Light Rain
11:56 AM 81.0 °F 86.2 °F 73.9 °F 79% 30.21 in 6.0 mi ESE 3.5 mph - N/A   Haze
12:56 PM 84.9 °F 92.1 °F 73.9 °F 69% 30.18 in 8.0 mi SSE 5.8 mph - N/A   Partly Cloudy
1:56 PM 87.1 °F 95.4 °F 73.9 °F 65% 30.18 in 8.0 mi South 6.9 mph - N/A   Scattered Clouds
2:56 PM 88.0 °F 94.7 °F 72.0 °F 59% 30.16 in 8.0 mi SSE 11.5 mph - N/A   Partly Cloudy
3:56 PM 89.1 °F 94.1 °F 70.0 °F 53% 30.15 in 8.0 mi SSE 12.7 mph 17.3 mph N/A   Clear
4:56 PM 88.0 °F 93.8 °F 71.1 °F 57% 30.14 in 8.0 mi South 12.7 mph - N/A   Clear
5:56 PM 87.1 °F 93.6 °F 72.0 °F 61% 30.15 in 8.0 mi South 10.4 mph - N/A   Clear
6:56 PM 84.9 °F 92.1 °F 73.9 °F 69% 30.16 in 7.0 mi South 9.2 mph - N/A   Clear
7:56 PM 82.0 °F 87.9 °F 73.9 °F 76% 30.17 in 7.0 mi South 5.8 mph - N/A   Clear
8:56 PM 80.1 °F 84.5 °F 73.9 °F 81% 30.19 in 7.0 mi South 3.5 mph - N/A   Clear
9:56 PM 80.1 °F 84.5 °F 73.9 °F 81% 30.20 in 7.0 mi Calm Calm - N/A   Clear
10:56 PM 81.0 °F 86.2 °F 73.9 °F 79% 30.20 in 7.0 mi South 3.5 mph - N/A   Clear
11:56 PM 80.1 °F 85.1 °F 75.0 °F 85% 30.19 in 6.0 mi South 3.5 mph - N/A   Haze